This demonstration page uses our WeatherBlox Daily Observations layout. Learn more.

Left ArrowRight Arrow

34.74481, -87.66753

Hourly Observations for March 29, 2018

Temp ( °F °C ) Dew Point ( °F °C ) Humidity (%) Winds ( mph kmh ) Pressure ( in mb ) Visibility ( mi km ) Precip ( " mm )
12:16 am 00:16 Cloudy with Rain 63 17.2 59 15 87 87 N 7 11 29.91 1013 3 5 0.12 3.05
12:53 am 00:53 Cloudy with Heavy Rain 61 16.1 58 14.4 90 90 NNW 8 13 29.93 1013 4 6 0.28 7.11
1:35 am 01:35 Cloudy with Rain 61 16.1 57 13.9 87 87 NNW 6 9 29.91 1013 4 6 0.11 2.79
1:53 am 01:53 Cloudy with Rain 61 16.1 57 13.9 87 87 NNE 10 17 29.92 1013 6 10 0.14 3.56
2:53 am 02:53 Cloudy with Light Rain 60 15.6 57 13.9 90 90 NE 8 13 29.91 1013 6 10 0.07 1.78
3:53 am 03:53 Cloudy with Heavy Rain 60 15.6 57 13.9 90 90 ENE 10 17 29.88 1012 4 6 0.09 2.29
4:30 am 04:30 Cloudy with Light Rain 59 15 57 13.9 93 93 E 8 13 29.85 1011 5 8 0.06 1.52
4:53 am 04:53 Cloudy 59 15 57 13.9 93 93 ESE 8 13 29.89 1012 10 16 0.06 1.52
5:14 am 05:14 Cloudy with Light Rain 59 15 57 13.9 93 93 SE 3 6 29.88 1012 10 16 0.01 0.25
5:28 am 05:28 Cloudy 59 15 57 13.9 93 93 E 6 9 29.85 1011 10 16 0.01 0.25
5:53 am 05:53 Cloudy 60 15.6 57 13.9 90 90 Calm 29.88 1012 10 16 0.01 0.25
6:03 am 06:03 Cloudy 60 15.6 57 13.9 90 90 S 5 7 29.88 1012 10 16 0.00 0.00
6:53 am 06:53 Cloudy with Light Rain 60 15.6 58 14.4 93 93 SSW 3 6 29.91 1013 7 11 0.03 0.76
7:10 am 07:10 Cloudy with Light Rain 60 15.6 58 14.4 93 93 Calm 29.88 1012 9 14 0.01 0.25
7:17 am 07:17 Cloudy 60 15.6 58 14.4 93 93 Calm 29.88 1012 10 16 0.01 0.25
7:53 am 07:53 Cloudy with Light Rain 60 15.6 58 14.4 93 93 ESE 6 9 29.88 1012 8 13 0.02 0.51
8:07 am 08:07 Cloudy with Light Rain 61 16.1 59 15 93 93 SE 3 6 29.85 1011 10 16 0.00 0.03
8:31 am 08:31 Cloudy with Heavy Rain 61 16.1 59 15 93 93 SSW 8 13 29.91 1013 2 3 0.02 0.51
8:41 am 08:41 Cloudy with Rain 61 16.1 59 15 93 93 SSW 9 15 29.91 1013 3 5 0.06 1.52
8:53 am 08:53 Cloudy with Light Rain 61 16.1 58 14.4 90 90 S 5 7 29.90 1012 5 8 0.09 2.29
9:53 am 09:53 Cloudy with Light Rain 62 16.7 58 14.4 86 86 WSW 5 7 29.90 1013 7 11 0.02 0.51
10:53 am 10:53 Cloudy with Light Rain 61 16.1 57 13.9 87 87 Calm 29.89 1012 6 10 0.09 2.29
11:53 am 11:53 Cloudy with Light Rain 61 16.1 57 13.9 87 87 S 6 9 29.89 1012 10 16 0.04 1.02
12:37 pm 12:37 Cloudy with Light Rain 61 16.1 57 13.9 87 87 SSW 5 7 29.85 1011 10 16 0.02 0.51
12:53 pm 12:53 Cloudy with Rain 61 16.1 57 13.9 87 87 S 6 9 29.88 1012 6 10 0.03 0.76
1:00 pm 13:00 Cloudy with Light Rain 61 16.1 57 13.9 87 87 S 6 9 29.88 1012 7 11 0.01 0.25
1:53 pm 13:53 Cloudy with Light Rain 61 16.1 58 14.4 90 90 SSE 10 17 29.84 1011 9 14 0.06 1.52
2:53 pm 14:53 Mostly Cloudy 61 16.1 57 13.9 87 87 SSE 5 7 29.82 1010 10 16 0.03 0.76
3:04 pm 15:04 Partly Cloudy 61 16.1 57 13.9 87 87 SSE 8 13 29.83 1010 10 16 0.00 0.00
3:53 pm 15:53 Partly Cloudy 61 16.1 57 13.9 87 87 SSE 8 13 29.82 1010 10 16 0.00 0.00
4:53 pm 16:53 Mostly Sunny 61 16.1 57 13.9 87 87 SE 9 15 29.80 1009 10 16 0.00 0.00
5:50 pm 17:50 Mostly Cloudy 63 17 57 14 83 83 S 8 13 29.83 1010 10 16 0.00 0.00
5:53 pm 17:53 Mostly Cloudy 61 16.1 57 13.9 87 87 S 7 11 29.83 1010 10 16 0.00 0.00
6:12 pm 18:12 Mostly Cloudy 61 16.1 57 13.9 87 87 S 7 11 29.83 1010 10 16 0.00 0.00
6:53 pm 18:53 Mostly Cloudy 61 16.1 57 13.9 87 87 S 6 9 29.85 1011 10 16 0.00 0.00
7:53 pm 19:53 Partly Cloudy 59 15 55 12.8 87 87 S 8 13 29.86 1011 10 16 0.00 0.00
8:08 pm 20:08 Mostly Cloudy 60 15.6 56 13.3 86 86 S 10 17 29.83 1010 10 16 0.00 0.00
8:25 pm 20:25 Partly Cloudy 59 15 55 12.8 87 87 S 9 15 29.83 1010 10 16 0.00 0.00
8:53 pm 20:53 Mostly Clear 59 15 55 12.8 87 87 SSW 10 17 29.88 1012 10 16 0.00 0.00
9:50 pm 21:50 Cloudy with Light Rain 61 16 55 13 83 83 WSW 16 26 29.88 1012 6 10 0.01 0.25
9:53 pm 21:53 Cloudy with Light Rain 60 15.6 56 13.3 86 86 W 14 22 29.91 1013 7 11 0.01 0.25
10:53 pm 22:53 Mostly Cloudy 58 14.4 52 11.1 81 81 WNW 22 35 29.96 1015 10 16 0.02 0.51
11:53 pm 23:53 Cloudy 55 12.8 49 9.4 80 80 WNW 16 26 29.99 1016 10 16 0.00 0.00

Powered by AerisWeather